Back to catalog

SL-14 DEB

AlivePO
NORAD 25203·DEBRIS·🇷🇺 Russia

Launched Aug 18, 1987 from Plesetsk Cosmodrome

Loading…

Next Passes (next 24 hours)

TLE

FreshSource: Space-Track

Epoch: Sep 14, 2026, 02:23 UTC

1 25203U 87068AE  26257.09985868  .00000759  00000-0  29254-3 0  9992
2 25203  82.2667 142.4197 0091986  98.1726 262.9904 14.26842762477786

Track SL-14 DEB in real time with AllMySat

Download on the App Store